Flag for Canada Weather past 2 weeks in Chatham-Kent, Ontario, Canada

Now
18 °F

Cold.


Feels Like: 11 °F
Forecast: 10 / 19 °F
Wind: 5 mph from Northwest

Location: Erieau

Current Time: Jan 27, 2015 at 2:24:41 PM

Latest Report: Jan 27, 2015 at 1:00 PM


Visibility: N/A

Pressure: 30.11 "Hg

Humidity: 61%

Dew point: 7 °F

Location of Chatham-KentLocation

Historic Weather in Chatham-Kent — Graph

°F

Chatham-Kent temperature yesterday

Maximum temperature yesterday: 22 °F (at 4:00 PM)
Minimum temperature yesterday: 13 °F (at 8:00 AM)
Average temperature yesterday: 19 °F

Past Weeks' High & Low Weather Summary

 TemperatureHumidityPressure
High39 °F (Jan 18, 12:00 AM)99% (Jan 12, 1:00 PM)30.77 "Hg (Jan 12, 1:00 PM)
Low-2 °F (Jan 13, 8:00 AM)57% (Jan 16, 2:00 PM)29.55 "Hg (Jan 24, 3:00 PM)
Average23 °F82%30.08 "Hg
* Reported Jan 12 1:00 PM — Jan 27 1:00 PM, Chatham-Kent, Weather by CustomWeather, © 2014

Note: Actual official high and low records may vary slightly from our data, if they occured in-between our weather recording intervals... More about our weather records

Advertising

Chatham-Kent weather history for previous 24 hours

 ConditionsComfort  
Time TempWeatherWind HumidityBarometerVisibility
1:00 PM
Jan 27
18 °FCold.5 mph61%30.11 "HgN/A
12:00 PM17 °FCold.5 mph59%30.10 "HgN/A
11:00 AM16 °FCold.7 mph60%30.11 "HgN/A
10:00 AM16 °FCold.7 mph62%30.10 "HgN/A
9:00 AM15 °FCold.5 mph75%30.08 "HgN/A
8:00 AM14 °FCold.5 mph80%30.06 "HgN/A
7:00 AM15 °FCold.5 mph86%30.03 "HgN/A
6:00 AM15 °FCold.9 mph76%30.02 "HgN/A
5:00 AM16 °FCold.7 mph83%30.00 "HgN/A
4:00 AM17 °FCold.7 mph76%29.99 "HgN/A
3:00 AM18 °FCold.6 mph76%29.99 "HgN/A
2:00 AM18 °FCold.7 mph77%29.98 "HgN/A
1:00 AM18 °FCold.8 mph79%29.98 "HgN/A
12:00 AM19 °FCold.10 mph80%29.98 "HgN/A
11:00 PM
Jan 26
19 °FCold.8 mph81%29.98 "HgN/A
10:00 PM20 °FCold.9 mph80%29.98 "HgN/A
9:00 PM20 °FCold.12 mph78%29.98 "HgN/A
8:00 PM21 °FCold.13 mph82%29.97 "HgN/A
7:00 PM21 °FCold.10 mph78%29.96 "HgN/A
6:00 PM22 °FCold.9 mph74%29.94 "HgN/A
5:00 PM22 °FCold.9 mph71%29.93 "HgN/A
4:00 PM22 °FCold.6 mph66%29.91 "HgN/A
3:00 PM21 °FCold.8 mph63%29.90 "HgN/A
2:00 PM21 °FCold.9 mph58%29.90 "HgN/A
Weather by CustomWeather, © 2014

See weather overviewHow to use our weather pages